ES'HAIL 2

Last updated on Sun Jun 21 2026 00:03:07 GMT+0000 (Coordinated Universal Time)

1 43700U 18090A 26171.32582803 .00000139 00000+0 00000+0 0 9991 2 43700 0.0162 58.1464 0001829 66.6264 286.8419 1.00272471 27701
UTC large
Height (km)
Speed (km/s)
/
Latitude / Longitude
Inclination (degrees)
Orbital Period (minutes)
Azimuth
Elevation
Range (km)
Doppler Factor

Next 0 passes for location: London (51.5072 / 0.1276)

No passes found over London.
ES'HAIL 2